Weather History for Luxor, Egypt

Change the Weather History Date:

Saturday, December 14, 2013

  Actual Average Record
Temperature  
Mean Temperature 55 °F -  
Max Temperature 65 °F 71 °F 87 °F (2003)
Min Temperature 45 °F 45 °F 42 °F (2010)
Degree Days  
Heating Degree Days 10    
Growing Degree Days 5 (Base 50)    
Moisture  
Dew Point 44 °F    
Average Humidity 66    
Maximum Humidity 87    
Minimum Humidity 42    
Precipitation  
Precipitation 0.00 in 0.00 in - ()
Sea Level Pressure  
Sea Level Pressure 30.26 in    
Wind  
Wind Speed 3 mph ()    
Max Wind Speed 7 mph    
Max Gust Speed -    
Visibility 6.1 miles    
Events      
Averages and records for this station are not official NWS values.
T = Trace of Precipitation, MM = Missing Value Source: Averaged Metar Reports

Daily Weather History Graph

Daily Weather History Graph

Search for Another Location

Airport:

Trip Planner

Search our weather history database for the weather conditions in past years. The results will help you decide how hot, cold, wet, or windy it might be!

Date:

Astronomy

Dec. 14, 2013 Rise Set
Actual Time 6:27 AM EET 5:00 PM EET
Civil Twilight 6:02 AM EET 5:25 PM EET
Nautical Twilight 5:33 AM EET 5:54 PM EET
Astronomical Twilight 5:05 AM EET 6:22 PM EET
Moon 2:58 PM EET (12/14) 3:40 AM EET (12/14)
Length of Visible Light 11h 23m
Length of Day
10h 33m
Waxing Gibbous, 92% of the Moon is Illuminated
Dec 14
Waxing Gibbous
Dec 17
Full
Dec 25
Last Quarter
Jan 1
New
Jan 8
First Quarter

Hourly Weather History & Observations

Time (EET) Temp. Windchill Dew Point Humidity Pressure Visibility Wind Dir Wind Speed Gust Speed Precip Events Conditions
12:00 AM 51.8 °F - 42.8 °F 71% 30.21 in - WSW 3.5 mph - N/A   Clear
1:00 AM 50.0 °F - 42.8 °F 76% 30.21 in - WSW 2.3 mph - N/A   Clear
2:00 AM 48.2 °F - 42.8 °F 82% 30.21 in - SW 3.5 mph - N/A   Clear
3:00 AM 48.2 °F - 41.0 °F 76% 30.18 in - Calm Calm - N/A   Clear
4:00 AM 48.2 °F - 41.0 °F 76% 30.21 in - Calm Calm - N/A   Clear
5:00 AM 47 °F - 42 °F 77% 30.24 in 6 mi SW 2.3 mph - -  
5:00 AM 46.4 °F - 42.8 °F 87% 30.21 in - SW 2.3 mph - N/A   Clear
6:00 AM 44.6 °F 42.2 °F 41.0 °F 87% 30.24 in - WSW 4.6 mph - N/A   Clear
7:00 AM 46.4 °F 43.5 °F 41.0 °F 81% 30.24 in - WSW 5.8 mph - N/A   Clear
8:00 AM 51 °F - 44 °F 71% 30.30 in 6 mi WSW 3.5 mph - -  
8:00 AM 51.8 °F - 44.6 °F 76% 30.33 in - WSW 3.5 mph - N/A   Clear
9:00 AM 55.4 °F - 46.4 °F 72% 30.30 in - West 6.9 mph - N/A   Clear
10:00 AM 59.0 °F - 46.4 °F 63% 30.30 in - West 4.6 mph - N/A   Clear
11:00 AM 61 °F - 47 °F 49% 30.30 in 6 mi WNW 6.9 mph - -   Partly Cloudy
11:00 AM 60.8 °F - 46.4 °F 59% 30.30 in 6.2 mi WNW 6.9 mph - N/A   Scattered Clouds
1:00 PM 62.6 °F - 46.4 °F 55% 30.24 in 6.2 mi NNW 6.9 mph - N/A   Mostly Cloudy
2:00 PM 64 °F - 46 °F 42% 30.23 in 6 mi NW 6.9 mph - -   Mostly Cloudy
4:00 PM 62.6 °F - 46.4 °F 55% 30.24 in 6.2 mi NW 6.9 mph - N/A   Mostly Cloudy
5:00 PM 62 °F - 45 °F 43% 30.26 in 6 mi NNW 4.6 mph - -   Mostly Cloudy
5:00 PM - - - N/A% 30.24 in 6.2 mi North - - N/A   Mostly Cloudy
6:00 PM 60.8 °F - 44.6 °F 55% 30.27 in 6.2 mi NW 3.5 mph - N/A   Mostly Cloudy
7:00 PM 59.0 °F - 39.2 °F 48% 30.30 in 6.2 mi WNW 4.6 mph - N/A   Scattered Clouds
8:00 PM 58 °F - 44 °F 50% 30.31 in 6 mi NW 3.5 mph - -   Partly Cloudy
9:00 PM 55.4 °F - 44.6 °F 67% 30.30 in - NW 2.3 mph - N/A   Clear
11:00 PM 55 °F - 44 °F 57% 30.33 in 6 mi Calm Calm - -  
11:00 PM 55.4 °F - 44.6 °F 67% 30.33 in - Calm Calm - N/A   Clear